Weather History for Anniston, AL

Change the Weather History Date:

Monday, February 18, 2013

  Actual Average Record
Temperature  
Mean Temperature 45 °F 48 °F  
Max Temperature 61 °F 59 °F 78 °F (1951)
Min Temperature 28 °F 37 °F 6 °F (1905)
Degree Days  
Heating Degree Days 20    
Month to date heating degree days 352  
Since 1 July heating degree days 1886  
Moisture  
Dew Point 25 °F    
Average Humidity 56    
Maximum Humidity 85    
Minimum Humidity 27    
Precipitation  
Precipitation 0.00 in 0.18 in 1.45 in (1961)
Month to date precipitation 2.97 3.21  
Year to date precipitation 10.95 7.73  
Sea Level Pressure  
Sea Level Pressure 30.24 in    
Wind  
Wind Speed 7 mph (SSE)    
Max Wind Speed 20 mph    
Max Gust Speed 28 mph    
Visibility 10 miles    
Events      
T = Trace of Precipitation, MM = Missing Value Source: NWS Daily Summary

Daily Weather History Graph

Daily Weather History Graph

Search for Another Location

Airport:

Trip Planner

Search our weather history database for the weather conditions in past years. The results will help you decide how hot, cold, wet, or windy it might be!

Date:

Astronomy

Feb. 18, 2013 Rise Set
Actual Time 6:24 AM CST 5:30 PM CST
Civil Twilight 5:58 AM CST 5:56 PM CST
Nautical Twilight 5:29 AM CST 6:25 PM CST
Astronomical Twilight 5:00 AM CST 6:54 PM CST
Moon 11:24 AM CST (2/18) 12:55 AM CST (2/18)
Length of Visible Light 11h 57m
Length of Day
11h 06m
First Quarter, 58% of the Moon is Illuminated
Feb 18
First Quarter
Feb 25
Full
Mar 4
Last Quarter
Mar 11
New
Mar 19
First Quarter

Hourly Weather History & Observations

Time (CST) Temp. Windchill Dew Point Humidity Pressure Visibility Wind Dir Wind Speed Gust Speed Precip Events Conditions
12:53 AM 30.0 °F - 23.0 °F 75% 30.31 in 10.0 mi Calm Calm - N/A   Clear
1:53 AM 28.9 °F - 24.1 °F 82% 30.30 in 10.0 mi Calm Calm - N/A   Clear
2:53 AM 28.9 °F - 24.1 °F 82% 30.30 in 10.0 mi Calm Calm - N/A   Clear
3:53 AM 28.0 °F - 23.0 °F 81% 30.31 in 10.0 mi Calm Calm - N/A   Clear
4:53 AM 28.9 °F - 21.9 °F 75% 30.32 in 10.0 mi Calm Calm - N/A   Clear
5:53 AM 28.0 °F - 21.9 °F 78% 30.33 in 10.0 mi Calm Calm - N/A   Clear
6:53 AM 28.9 °F - 23.0 °F 78% 30.34 in 10.0 mi Calm Calm - N/A   Clear
7:53 AM 36.0 °F 30.3 °F 23.0 °F 59% 30.36 in 10.0 mi NE 6.9 mph - N/A   Clear
8:53 AM 43.0 °F 41.3 °F 26.1 °F 51% 30.36 in 9.0 mi NE 3.5 mph - N/A   Clear
9:53 AM 52.0 °F - 28.9 °F 41% 30.35 in 10.0 mi South 9.2 mph - N/A   Clear
10:53 AM 55.0 °F - 27.0 °F 34% 30.33 in 10.0 mi SSW 12.7 mph - N/A   Clear
11:53 AM 57.0 °F - 27.0 °F 32% 30.29 in 10.0 mi SSW 8.1 mph - N/A   Clear
12:53 PM 59.0 °F - 28.0 °F 31% 30.25 in 10.0 mi SSE 10.4 mph - N/A   Clear
1:53 PM 60.1 °F - 28.0 °F 30% 30.22 in 10.0 mi SSW 12.7 mph - N/A   Clear
2:53 PM 61.0 °F - 26.1 °F 26% 30.18 in 10.0 mi SE 17.3 mph 26.5 mph N/A   Clear
3:53 PM 59.0 °F - 26.1 °F 28% 30.17 in 10.0 mi South 10.4 mph 19.6 mph N/A   Partly Cloudy
4:53 PM 57.0 °F - 27.0 °F 32% 30.15 in 10.0 mi SSE 9.2 mph 16.1 mph N/A   Clear
5:53 PM 55.9 °F - 27.0 °F 33% 30.13 in 10.0 mi ESE 9.2 mph 16.1 mph N/A   Mostly Cloudy
7:53 PM 54.0 °F - 28.0 °F 37% 30.13 in 10.0 mi Variable 3.5 mph - N/A   Overcast
8:53 PM 53.1 °F - 27.0 °F 37% 30.13 in 10.0 mi South 8.1 mph 19.6 mph N/A   Overcast
9:53 PM 53.1 °F - 24.1 °F 32% 30.09 in 10.0 mi South 11.5 mph 24.2 mph N/A   Overcast
10:53 PM 53.1 °F - 27.0 °F 37% 30.06 in 10.0 mi South 9.2 mph 17.3 mph N/A   Overcast
11:53 PM 53.1 °F - 23.0 °F 31% 30.03 in 10.0 mi SE 12.7 mph 17.3 mph N/A   Overcast